Content
SEND FEEDBACK

Daily
Averages
Monthly
Summary
United States of America

BRIDGEPORT, WASHINGTON


Home > North America > United States > Washington
Elevation: 246 meters     Latitude: 48 00N     Longitude: 119 39W

WEATHER
 
SELECT A DAY
Number of Records: 164,758;   Date Range: 2/17/98 - 8/12/14
 
SHARE

PRINT THIS DATA

[ ← Previous Day ]
WEATHER ALMANAC - 31 JANUARY, 2013
[ Next Day → ]
[ °F ]   °C
Weather ElementAverageHighLow
Temperature-4.1 °C1.1 °C (2:53 pm)-8.3 °C (11:53 pm)
Dewpoint-5.7 °C-2.8 °C (2:53 pm)-9.4 °C (11:53 pm)
Humidity88.3 %96 % (8:53 pm)75 % (2:53 pm)
Barometer1025.7 hPa1027.1 hPa (3:53 am)1024.4 hPa (3:53 pm)
Wind Speed0.6 km/h9.3 km/h (8:53 pm)
Weather ElementAverage
Visibility14.8 km
Wind DirectionNNE (28.2 °)

Weather ElementTotal
Precipitation---
Heating Degree Days21.9 (Base 18.3)
Averaged from 22 records on 31 January, 2013
WEATHER CONDITIONS BREAKOUT
WIND DIRECTION BREAKOUT
WEATHER BY HOUR - 31 JANUARY, 2013
[ °F ]   °C
Local TimeTemperatureDewpointHumidityBarometerVisibilityWind DirectionWind SpeedGust SpeedPrecipitationEventsConditions
1:53 AM-4.4 °C-6.1 °C88 %1026.8 hPa16.1 kmCalmPartly Cloudy
2:53 AM-4.4 °C-6.1 °C88 %1026.8 hPa16.1 kmCalmMostly Cloudy
3:53 AM-4.4 °C-6.1 °C88 %1027.1 hPa16.1 kmCalmOvercast
4:53 AM-5 °C-6.7 °C88 %1027.1 hPa16.1 kmCalmMostly Cloudy
5:53 AM-7.2 °C-8.3 °C92 %1026.4 hPa16.1 kmCalmClear
6:53 AM-7.2 °C-8.3 °C92 %1026.8 hPa16.1 kmCalmClear
7:53 AM-6.7 °C-7.8 °C92 %1027.1 hPa14.5 kmCalmClear
8:53 AM-5.6 °C-6.7 °C92 %1027.1 hPa16.1 kmCalmClear
9:53 AM-3.9 °C-5 °C92 %1027.1 hPa11.3 kmCalmClear
10:53 AM-2.8 °C-4.4 °C89 %1027.1 hPa14.5 kmWest (270°)5.6 km/hScattered Clouds
11:53 AM-2.2 °C-3.9 °C88 %1026.4 hPa12.9 kmCalmMostly Cloudy
12:53 PM-2.2 °C-3.9 °C88 %1025.7 hPa11.3 kmCalmPartly Cloudy
1:53 PM0 °C-3.3 °C79 %1025.1 hPa14.5 kmCalmScattered Clouds
2:53 PM1.1 °C-2.8 °C75 %1024.7 hPa16.1 kmCalmOvercast
3:53 PM0 °C-2.8 °C82 %1024.4 hPa14.5 kmCalmOvercast
4:53 PM0 °C-2.8 °C82 %1024.4 hPa16.1 kmCalmOvercast
5:53 PM-2.2 °C-3.9 °C88 %1024.4 hPa16.1 kmCalmMostly Cloudy
6:53 PM-4.4 °C-5.6 °C91 %1024.7 hPa16.1 kmCalmPartly Cloudy
7:53 PM-5.6 °C-6.7 °C92 %1024.4 hPa12.9 kmCalmClear
8:53 PM-6.7 °C-7.2 °C96 %1024.7 hPa12.9 kmNorth (350°)9.3 km/hPartly Cloudy
10:53 PM-6.7 °C-8.3 °C89 %1025.1 hPa14.5 kmCalmClear
11:53 PM-8.3 °C-9.4 °C92 %1026.1 hPa16.1 kmCalmClear
Hourly data recorded from KOMK, located 0 kilometers away from Bridgeport, Washington







STORIES FROM OUR PARTNERS